{"data":{"norad_id":59904,"intl_designator":"2024-100V","name":"STARLINK-31924","alt_names":[],"object_type":"PAYLOAD","status":"ACTIVE","operator":null,"country":"US","launch_date":"2024-05-28","launch_site_code":"AFETR","launch_vehicle":null,"mission":null,"orbit_class":"UNKNOWN","rcs_meters":null,"size_class":null,"mass_kg":null,"dimensions":null,"purposes":["comms"],"wikipedia_slug":null,"has_3d_model":false,"image_url":null,"decayed_at":null,"tle_current":{"epoch":"2026-09-20T21:42:34.725312Z","epoch_age_seconds":139581,"freshness":"FRESH","line1":"1 59904U 24100V   26263.90456858 -.00000646  00000+0 -13932-4 0  9997","line2":"2 59904  43.0038 102.8174 0001447 269.7063  90.3622 15.27583826131003","mean_motion":15.27583826,"eccentricity":0.0001447,"inclination_deg":43.0038,"raan_deg":102.8174,"arg_perigee_deg":269.7063,"mean_anomaly_deg":90.3622,"bstar":-1.3932e-5,"rev_number":13100,"period_min":94.266512612317,"perigee_km":482.04482767281,"apogee_km":484.03045161353,"semimajor_km":6861.1746396432,"source":"CELESTRAK","updated_at":"2026-09-22T09:00:49.109531Z"}}}